Regional Weather Roundup
Issued by NWS

Home | Current Version | Previous Version | Graphics & Text | Print | Product List | Glossary On
Versions: 1 2 3 4 5 6 7 8 9 10 11 12 13 14 15 16 17 18 19 20 21 22 23 24 25 26 27 28 29 30 31 32 33 34 35 36 37 38 39 40 41 42 43 44 45 46 47 48 49 50
967
ASUS44 KMEG 081700
RWRTN
TENNESSEE HOURLY STATE WEATHER ROUNDUP
NATIONAL WEATHER SERVICE MEMPHIS TN
1100 AM CST MON FEB 08 2016

TNZ002-004-019-021-049-052-054-088>092-081800-
WEST TENNESSEE

CITY           SKY/WX    TMP DP  RH WIND       PRES   REMARKS
MEMPHIS INTL   CLOUDY    43  22  43 NW16G35   29.96R
NWS MEMPHIS      N/A     42 N/A N/A MISG        N/A
JACKSON        CLOUDY    41  25  53 W15G29    29.90R
DYERSBURG      CLOUDY    39  19  45 NW14G31   29.93R WCI  31
PARIS          CLOUDY    37  23  56 W12       29.84S WCI  30
$$

TNZ008-025-027-028-033-062-065-066-081800-
NORTH MIDDLE TENNESSEE

CITY           SKY/WX    TMP DP  RH WIND       PRES   REMARKS
NASHVILLE      CLOUDY    42  23  46 W12       29.82R
CLARKSVILLE    CLOUDY    40  24  53 W14G21    29.81R WCI  32
CROSSVILLE     MOSUNNY   40  23  50 W17       29.72F WCI  31
$$

TNZ061-075-076-078-094-096-097-081800-
SOUTH MIDDLE TENNESSEE

CITY           SKY/WX    TMP DP  RH WIND       PRES   REMARKS
WINCHESTER     PTSUNNY   46  25  42 NW10      29.81S
$$

TNZ017-018-042-046-047-081800-
NORTHEAST TENNESSEE

CITY           SKY/WX    TMP DP  RH WIND       PRES   REMARKS
TRI CITIES     CLOUDY    40  33  76 SW9       29.71F WCI  34
$$

TNZ012-013-036-069-073-074-081800-
CENTRAL EAST TENNESSEE

CITY           SKY/WX    TMP DP  RH WIND       PRES   REMARKS
KNOXVILLE      PTSUNNY   47  27  45 SW15      29.71F
OAK RIDGE      LGT RAIN  41  32  70 W5G21     29.74S
$$

TNZ083-085-099-081800-
SOUTHEAST TENNESSEE

CITY           SKY/WX    TMP DP  RH WIND       PRES   REMARKS
CHATTANOOGA    PTSUNNY   48  21  34 W12G23    29.77F
$$

SKY/WX REPORTED AS FAIR MEANS FEW OR NO CLOUDS BELOW
12 THOUSAND FEET.





USA.gov is the U.S. government's official web portal to all federal, state and local government web resources and services.